Showing default

HULIANWANG DIGUI-14, 62974

Orbit data source: Space-Track

HULIANWANG DIGUI-14, 62974 is a payload satellite owned by Zhongguo Xingwang (CN) in LEO that was launched on Tue, 11 Feb 2025 UTC via a CHANG ZHENG 8A launch vehicle from the Wenchang Satellite Launch Center (WSC). Payload-class satellites include a variety of spacecraft equipped with specific instruments for various scientific and technological missions. These include communications satellites like Starlink; space stations such as the ISS; scientific satellites like the Hubble; Earth observation satellites from companies like Planet Labs, Umbra, and HawkEye 360; GPS; miniature CubeSats for education and research; and military/defense satellites.

Loading next visibility...
Identifier
62974, 2025-030D
Orbit
LEO
Last TLE update
13 hours ago
Origin
Manufacturer
CAST
Mission
Operational Civil Communications
Bus & Motor
HWHD, Unknown motor
Mass
~800 kg wet, ~800 kg dry
Launch date (UTC)
2025-02-11 (5 months ago)
Launch vehicle
CHANG ZHENG 8A
Launch site
Wenchang Satellite Launch Center (WSC)
Object type
Payload
Rocket body
Debris
Shape & HBR
Box + 2 Pan, 10 m
Radar Cross Section
5.935 m², Large (>1 m²)

Expand to show TLE details & history

TLE from 13 hours ago
0 HULIANWANG DIGUI-14
1 62974U 25030D   25181.88912361 -.00000103  00000-0  44347-4 0  9994
2 62974  50.0044  55.5927 0000447 127.9561 232.1351 13.29331610 19132
Epoch: 2025-06-30T21:20Z
TLE epoch observation values (Epoch: 2025-06-30T21:20:20.279Z)
Latitude
-0.00008°
Longitude
176.31568°
Altitude
1,149.998 km
Speed
7.279 km/s
True Right ascension
03h 42m 22s
True Declination
0° 00' 00"
Sunlit
Object was in daylight at epoch
Visualization orbit readout
Latitude
39.32393°
Longitude
-48.80452°
Altitude
1,152.119 km
Speed
7.282 km/s
Apparent Right ascension
11h 34m 36s
Apparent Declination
3° 49' 05"
Sunlit
Object is in daylight
Visualization observer readout
Local Sidereal Time
22:14:00
Azimuth
332.206° NNW
Elevation
-42.509°
Doppler factor
1
Orbital elements
Apogee altitude
1,150.327 km
Perigee altitude
1,149.654 km
Semi-major axis
7,528.127 km
Eccentricity
0.00004
Inclination
50.0044°
RAAN
55.5927°
Arg. of periapsis
127.9561°
True anomaly
Unknown
Mean anomaly
232.1351°
Eccentric anomaly
Unknown
Mean motion
3.32287 °/min
Orbital period
108.34 mins
BSTAR
0.000044347
Loading maneuver chart data...
Loading SW <> Apogee altitude chart data...
Loading historical data...
Loading historical data...
Loading historical data...
Loading historical data...
Loading historical data...
Loading historical data...
Loading historical data...

HULIANWANG DIGUI-14 Visibility forecast

Observer location: undefined°, undefined°

Span
Click to sort rows by Start time (UTC) header in descending order
Start Az.
Max El. time (UTC)
Max El. Az.
Max El.
End time (UTC)
End Az.
12 mins2025-07-01 17:18:31.690Z194.419° SSW2025-07-01 17:24:31.690Z133.574° SE31.343°2025-07-01 17:30:31.690Z70.31° E
12 mins2025-07-01 19:12:31.690Z248.991° W2025-07-01 19:17:31.690Z304.171° NW42.993°2025-07-01 19:24:31.690Z53.529° ENE
11 mins2025-07-01 21:07:31.690Z292.207° WNW2025-07-01 21:12:31.690Z350.454° N32.296°2025-07-01 21:18:31.690Z56.966° ENE
12 mins2025-07-01 23:02:31.690Z311.05° NW2025-07-01 23:07:31.690Z12.202° NNE35.526°2025-07-01 23:14:31.690Z88.179° E
12 mins2025-07-02 00:56:31.690Z301.405° NW2025-07-02 01:01:31.690Z254.816° W44.257°2025-07-02 01:08:31.690Z132.626° SE
8 mins2025-07-02 02:51:31.690Z266.202° W2025-07-02 02:54:31.690Z236.738° WSW19.647°2025-07-02 02:59:31.690Z191.283° SSW
|